User: anonymous   Login
Location: Unspecified
(0.0000°N, 0.0000°E)
Time: 05:09:38
(UTC+00:00)
Language:

P83-1 Hilat - Orbit

View from above orbital plane
View from above orbital plane
View from above satellite
View from above satellite

Ground track
Ground track

The orbit data is extracted from the following two-line orbital elements,

1 14154U 83063A   18267.59096840 +.00000078 +00000-0 +20937-4 0  9990
2 14154 082.0223 258.2742 0040443 182.1551 308.5099 14.36365150842183
Epoch (UTC): 24 September 2018 14:10:59
Eccentricity: 0.0040443
inclination: 82.0223°
perigee height: 741 km
apogee height: 799 km
right ascension of ascending node: 258.2742°
argument of perigee: 182.1551°
revolutions per day: 14.36365150
mean anomaly at epoch: 308.5099°
orbit number at epoch: 84218

The dashed part of the orbit path shows where the satellite is in the earth's shadow,  

DLR